Regional Weather Roundup
Issued by NWS Boston, MA

Home | Current Version | Previous Version | Text Only | Print | Product List | Glossary On
Versions: 1 2 3 4 5 6 7 8 9 10 11 12 13 14 15 16 17 18 19 20 21 22 23 24 25 26 27
000
ASUS41 KBOX 200510
RWRBOX

REGIONAL WEATHER ROUNDUP
NATIONAL WEATHER SERVICE TAUNTON MA
100 AM EDT FRI OCT 20 2017

NOTE:  "FAIR" INDICATES FEW OR NO CLOUDS BELOW 12,000 FEET WITH NO
SIGNIFICANT WEATHER AND/OR OBSTRUCTIONS TO VISIBILITY.

MAZALL-200600-
EASTERN MASSACHUSETTS

CITY           SKY/WX    TMP DP  RH WIND       PRES   REMARKS
BOSTON         FAIR      59  51  75 SW12      29.99S
BEVERLY        FAIR      59  49  69 SW10      29.97F
LAWRENCE       FAIR      60  48  64 SW10      29.99S
BEDFORD        FAIR      58  46  64 SW7       29.99R
BLUE HILL        N/A     56  50  80 SW14      30.00S
NORWOOD        FAIR      57  52  83 S5        30.00S
MARSHFIELD     FAIR      59  55  88 SW8G16    30.00S
PLYMOUTH       FAIR      58  53  84 S7        30.02F
TAUNTON        FAIR      60  54  80 SW8       30.01F
NEW BEDFORD    FAIR      60  55  83 W13       30.01F
$$

MAZALL-200600-
CAPE COD AND THE ISLANDS

CITY           SKY/WX    TMP DP  RH WIND       PRES   REMARKS
FALMOUTH       FAIR      61  57  88 SW13G20   30.04S
HYANNIS        FAIR      61  57  87 SW15      30.01F
CHATHAM        FAIR      61  58  90 SW12G22   30.04F
PROVINCETOWN   FAIR      59  56  89 SW16      30.01F
NANTUCKET      FAIR      60  58  92 SW20G25   30.06S
MARTHAS VNYRD  FAIR      60  57  89 SW12      30.04F
$$

MAZALL-200600-
CENTRAL AND WESTERN MASSACHUSETTS

CITY           SKY/WX    TMP DP  RH WIND       PRES   REMARKS
WORCESTER      FAIR      56  44  64 W13       30.01S
FITCHBURG      FAIR      65  46  50 W8G23     29.98S
ORANGE         FAIR      49  46  90 S6        30.00F
SPRINGFIELD    FAIR      51  47  88 S3        30.01R
WESTFIELD      FAIR      52  47  83 CALM      30.02R
NORTH ADAMS    FAIR      62  46  55 W10G18    30.02R
PITTSFIELD     FAIR      53  42  66 CALM      30.03R
$$

RIZALL-200600-
RHODE ISLAND

CITY           SKY/WX    TMP DP  RH WIND       PRES   REMARKS
PROVIDENCE     FAIR      59  55  87 SW9       30.03F
NEWPORT        FAIR      62  57  83 VRB5      30.03F
BLOCK ISLAND   FAIR      62  57  83 SW15G22   30.06S
SMITHFIELD     FAIR      57  52  83 VRB5      30.02S
WESTERLY       FAIR      63  55  75 SW7       30.05S
$$

CTZALL-200600-
CONNECTICUT

CITY           SKY/WX    TMP DP  RH WIND       PRES   REMARKS
BRADLEY INTL   MOCLDY    59  46  62 SW9       30.02S
HARTFORD       FAIR      58  50  75 S6        30.03S
BRIDGEPORT     FAIR      63  49  60 W8        30.05S
DANBURY        FAIR      60  46  59 NW5       30.07S
GROTON         FAIR      63  54  72 SW6       30.04S
NEW HAVEN      FAIR      63  49  60 CALM      30.05F
CHESTER        FAIR      61  48  63 W7G13     30.05S
MERIDEN        FAIR      53  50  89 SW3       30.05S
WILLIMANTIC    FAIR      50  49  96 NE3       30.04S
OXFORD         FAIR      54  46  74 CALM      30.06S
$$

MEZ002-015-021-024-NHZ003-005-008-011-012-014-VTZ005-008-200600-
NORTHERN NEW ENGLAND

CITY           SKY/WX    TMP DP  RH WIND       PRES   REMARKS
PORTLAND ME    FAIR      58  43  57 SW9G22    29.92R
BANGOR ME      MOCLDY    52  44  74 CALM      29.87R
CONCORD NH     FAIR      57  44  62 S7        29.95R
MANCHESTER NH  CLOUDY    59  46  62 S13       29.94F
NASHUA NH      FAIR      55  48  77 CALM      29.97F
PORTSMOUTH NH  MOCLDY    59  45  60 SW12      29.93S
JAFFREY NH     FAIR      55  48  77 CALM      29.99F
KEENE NH       FAIR      52  44  74 VRB3      29.98F
BURLINGTON VT  FAIR      62  46  55 N5        29.97R
MT. WASHINGTON CLOUDY    36  34  93 W66G71      N/A  WCI  18
$$

NYZ052-076-200600-
EASTERN NEW YORK

CITY           SKY/WX    TMP DP  RH WIND       PRES   REMARKS
ALBANY         MOCLDY    60  46  59 W8        30.04R
NEW YORK CITY  FAIR      66  46  48 SW9       30.07S
$$

ANZALL-200600-
MARINE OBSERVATIONS

STATION/POSITION TIME  TEMP    WIND        PRES    VSBY  WAVE
                       AIR SEA DIR/SP/G                  HT/PER
                 (UTC) (F)     (DEG/KT/KT) (MB)    (MI)  (FT/S)
BOSTON BUOY      0450   60 58  230/ 17/ 19 1014.7R         2/ 3
BUZZARDS BAY     0400   62     230/ 23/ 26 1017.4F
NANTUCKET SOUND  0450   62 62  230/ 19/ 23 1016.7F         2/ 4
MASS BAY-STELLWA 0404   60 59  240/ 12/ 16 1014.3F         3/ 4
ISLE OF SHOALS   0400   60     220/ 22/ 24 1013.6F
S OF BLOCK IS    NOT AVBL
$$

......................KEY.........................
  SKY/WX - SKY CONDITION/PRESENT WEATHER
  TMP    - TEMPERATURE IN FAHRENHEIT
  DWPT   - DEWPOINT IN FAHRENHEIT
  RH     - RELATIVE HUMIDITY IN PERCENT
  WIND   - DIRECTION AND SPEED IN MPH
  PRES   - MEAN SEA LEVEL PRESSURE IN INCHES OF HG
  WCI    - WIND CHILL INDEX
  VSB    - VISIBILITY IN MILES
  HX     - HEAT INDEX
  TC     - TEMPERATURE IN CELSIUS
  VRB    - VARIABLE WIND DIRECTION
  N/A    - NOT AVAILABLE




USA.gov is the U.S. government's official web portal to all federal, state and local government web resources and services.